Orbital Elements at Epoch 2459200.5 (2020-Dec-17.0) TDB
Reference: JPL 27 (heliocentric ecliptic J2000)
Element | Value | Uncertainty (1-sigma) | Units |
e | .09382037724702254 | 3.5012e-08 | |
a | 2.427474081559236 | 9.6847e-09 | au |
q | 2.199727547469979 | 8.326e-08 | au |
i | 13.12142973765343 | 5.0225e-06 | deg |
node | 198.7247228506808 | 1.5943e-05 | deg |
peri | 85.97885451560907 | 3.2257e-05 | deg |
M | 125.6537827368161 | 2.8969e-05 | deg |
tp | 2458718.326435937712 (2019-Aug-22.82643594) | 0.00011053 | TDB |
period | 1381.43459975252 3.78 | 8.2671e-06 2.263e-08 | d yr |
n | .2605986559656845 | 1.5595e-09 | deg/d |
Q | 2.655220615648493 | 1.0593e-08 | au |
|
| | Orbit Determination Parameters
Additional Information
|